[[{"header":{"parameterUnit":"m.s-1","parameterCategory":1,"la1":30.2991,"la2":30.254,"lo1":-89.0895,"lo2":-89.0444,"dy":0.0017,"dx":0.0017,"nx":28,"ny":28,"refTime":"2025-08-13T03:00:00:Z","depth":0,"parameterNumber":2,"parameterNumberName":"U-component_of_WINDS"},"data":[0,0,0,0,0,0,0,0,0,0,0,0,0,0,0,0,0,0,0,0,0,0,0,0,0,0,0,0,0,0,0,0,0,0,0,0,0,0,0,0,0,0,0,0,0,0,0,0,0,0,0,0,0,0,0,0,0,0,4.1278,4.128,0,4.1496,4.1499,4.1501,4.1475,4.1471,4.1468,4.1464,4.1692,4.1701,4.171,0,0,0,0,0,0,0,0,0,0,0,0,0,4.0839,4.0848,4.1278,4.128,4.1283,4.1496,4.1499,4.1502,4.1475,4.1471,4.1467,4.1463,4.1688,4.1699,4.1711,0,0,0,0,0,0,0,0,0,0,0,0,0,4.1041,4.085,4.1277,4.1295,4.1299,4.1495,4.1499,4.1503,4.1476,4.1471,4.1466,4.1461,4.1685,4.1698,4.1712,4.1905,0,0,4.1755,4.1761,0,0,0,0,0,0,0,0,4.103,4.1057,4.129,4.1294,4.1299,4.1453,4.1428,4.1638,4.1478,4.1409,4.1464,4.1458,4.1617,4.1636,4.1689,4.1916,4.1926,4.1756,4.1765,4.1771,4.1775,0,0,0,0,0,0,0,4.1016,4.1048,4.1364,4.1293,4.1299,4.1293,4.1316,4.1467,4.154,4.1415,4.1413,4.1439,4.1618,4.1675,4.1694,4.1929,4.1756,4.1768,4.1777,4.1783,4.2324,4.233,0,0,0,0,0,0,4.0997,4.1036,4.1357,4.1371,4.1148,4.1306,4.1331,4.1409,4.1538,4.1553,4.1444,4.1437,4.1654,4.1677,4.1702,4.1935,4.1771,4.1784,4.1792,4.2318,4.2326,4.2332,0,0,0,0,0,0,4.0988,4.1026,4.1348,4.1203,4.1244,4.1319,4.1406,4.1416,4.1473,4.156,4.1573,4.1488,4.1651,4.1682,4.1854,4.1943,4.179,4.1803,4.2311,4.2321,4.2329,4.2405,0,0,0,0,0,0,4.0975,4.1023,4.1096,4.1205,4.1252,4.1497,4.1412,4.1424,4.1497,4.1491,4.1606,4.162,4.1649,4.1833,4.1868,4.1959,4.1814,4.2304,4.2316,4.2326,4.2395,4.2415,4.2433,0,0,0,0,0,4.096,4.111,4.11,4.1139,4.1345,4.1502,4.1529,4.1558,4.1504,4.1579,4.1635,4.1616,4.1927,4.1851,4.189,4.1987,4.2298,4.2312,4.2325,4.2386,4.2411,4.2432,0,0,0,0,0,0,4.1011,4.1124,4.1115,4.1305,4.1394,4.1497,4.1593,4.1584,4.1691,4.1681,4.1714,4.174,4.1914,4.1968,4.1881,4.218,4.2106,4.2128,4.2139,4.2163,4.2182,4.2165,4.1826,0,0,0,0,0,4.1044,4.1161,4.1254,4.1413,4.1458,4.1518,4.1587,4.1602,4.1696,4.1734,4.1802,4.1895,4.2014,4.2091,4.2206,4.2402,4.2427,4.2488,4.2507,4.2522,4.2541,4.2648,4.2676,4.2376,4.2376,4.2376,0,0,4.1114,4.1191,4.1263,4.1425,4.1496,4.1617,4.155,4.1681,4.1771,4.1754,4.192,4.1974,4.208,4.2265,4.235,4.2315,4.2629,4.2539,4.255,4.2561,4.2664,4.2693,4.2718,4.2385,4.2384,4.2382,0,0,4.1304,4.1374,4.1513,4.1585,4.1692,4.173,4.1764,4.1869,4.1903,4.207,4.206,4.2168,4.2372,4.2447,4.2513,4.2729,4.2716,4.2766,4.2865,4.2969,4.2993,4.3014,4.3091,4.3118,4.2784,4.2784,4.2784,0,4.1378,4.1559,4.1586,4.1718,4.1789,4.1778,4.1919,4.1988,4.2128,4.2178,4.2136,4.2391,4.2462,4.2664,4.2716,4.277,4.2809,4.2753,4.2987,4.3009,4.3029,4.3102,4.3131,4.2789,4.2789,4.2788,4.2788,0,4.1644,4.177,4.187,4.2003,4.2086,4.2222,4.227,4.235,4.2358,4.2401,4.2571,4.2655,4.2785,4.2834,4.2844,4.3038,4.3013,4.2979,4.2905,4.3062,4.3132,4.316,4.2797,4.2795,4.2794,4.2792,0,0,4.1873,4.2018,4.2055,4.2114,4.2231,4.233,4.2465,4.2591,4.266,4.2756,4.2871,4.3043,4.3012,4.3086,4.3103,4.3195,4.336,4.315,4.3153,4.3186,4.3579,4.3603,4.3636,4.3352,4.3358,4.3362,4.357,0,4.2074,4.2312,4.234,4.2553,4.2669,4.2659,4.2777,4.2862,4.2906,4.3011,4.306,4.3181,4.3131,4.3175,4.3266,4.3321,4.344,4.3307,4.346,4.3465,4.3433,4.3672,4.3699,4.3891,4.3598,4.3602,4.3606,0,4.234,4.2442,4.2666,4.2766,4.2816,4.2921,4.3038,4.3139,4.3235,4.326,4.3342,4.3348,4.3488,4.3408,4.3602,4.3511,4.3575,4.3612,4.362,4.3635,4.3544,4.3694,4.3953,4.3982,4.3649,4.3646,4.3643,0,4.2484,4.2678,4.2836,4.2888,4.3008,4.3083,4.3137,4.3227,4.3301,4.3404,4.3452,4.357,4.3635,4.3727,4.3765,4.3703,4.3957,4.388,4.3982,4.3981,4.4036,4.4032,4.4309,4.4078,4.4077,4.4077,4.4076,0,4.2705,4.2842,4.2902,4.3,4.3153,4.3183,4.3335,4.3386,4.3466,4.3574,4.3573,4.3675,4.3718,4.3826,4.3857,4.4012,4.4042,4.4067,4.4073,4.4067,4.4064,4.4109,4.4097,4.4085,4.4083,4.4081,4.408,0,4.2892,4.2937,4.3109,4.3209,4.3237,4.3345,4.3431,4.3525,4.3567,4.3703,4.3737,4.3804,4.3931,4.3977,4.4133,4.4153,4.4333,4.4329,4.4301,4.4302,4.4401,4.4391,4.4717,4.4761,4.4501,4.4504,4.4506,0,4.3029,4.3134,4.3244,4.3315,4.3371,4.3487,4.3561,4.3595,4.3673,4.379,4.387,4.3997,4.4099,4.4304,4.4366,4.4485,4.4483,4.4589,4.4501,4.4491,4.4484,4.4477,4.4488,4.4606,4.4608,4.4611,4.4612,0,4.3269,4.3286,4.3393,4.3508,4.3596,4.3689,4.3779,4.3837,4.3885,4.3973,4.4102,4.4181,4.4339,4.4464,4.4586,4.4642,4.4636,4.4639,4.4669,4.4664,4.4642,4.4655,4.4345,4.4632,4.463,4.4629,4.4627,4.4627,4.3435,4.3528,4.3619,4.3738,4.3808,4.3892,4.3985,4.4038,4.4146,4.4276,4.429,4.4429,4.4522,4.4684,4.4746,4.4855,4.4827,4.487,4.4881,4.4891,4.4898,4.4625,4.4878,4.4877,4.4877,4.4876,4.4876,0,4.3674,4.3732,4.3841,4.3965,4.4059,4.4043,4.4141,4.4221,4.4342,4.4429,4.4529,4.4678,4.4799,4.4871,4.4993,4.5067,4.5067,4.5098,4.5092,4.5105,4.4917,4.4879,4.5095,4.5095,4.5095,4.5095,4.5095,4.5095,4.381,4.3965,4.3992,4.4182,4.4239,4.4374,4.4432,4.4509,4.4578,4.4743,4.4843,4.4888,4.4969,4.5096,4.5207,4.5225,4.527,4.5304,4.5319,4.5141,4.5119,4.5097,4.5061,4.5313,4.5313,4.5498,4.55,4.5501]},{"header":{"parameterUnit":"m.s-1","parameterCategory":1,"la1":30.2991,"la2":30.254,"lo1":-89.0895,"lo2":-89.0444,"dy":0.0017,"dx":0.0017,"nx":28,"ny":28,"refTime":"2025-08-13T03:00:00:Z","depth":0,"parameterNumber":3,"parameterNumberName":"V-component_of_WINDS"},"data":[0,0,0,0,0,0,0,0,0,0,0,0,0,0,0,0,0,0,0,0,0,0,0,0,0,0,0,0,0,0,0,0,0,0,0,0,0,0,0,0,0,0,0,0,0,0,0,0,0,0,0,0,0,0,0,0,0,0,0.5551,0.5551,0,0.5601,0.5602,0.5603,0.5552,0.555,0.5548,0.5546,0.5599,0.5602,0.5605,0,0,0,0,0,0,0,0,0,0,0,0,0,0.5411,0.5414,0.5551,0.5551,0.5552,0.5601,0.5602,0.5603,0.5552,0.555,0.5547,0.5545,0.5598,0.5602,0.5606,0,0,0,0,0,0,0,0,0,0,0,0,0,0.5468,0.5415,0.5551,0.5533,0.5532,0.5601,0.5602,0.5603,0.5553,0.555,0.5547,0.5544,0.5597,0.5601,0.5606,0.5696,0,0,0.5621,0.5623,0,0,0,0,0,0,0,0,0.5465,0.5473,0.5535,0.5534,0.5533,0.5567,0.5572,0.5634,0.5554,0.5545,0.5546,0.5543,0.5591,0.5596,0.5612,0.5699,0.5701,0.5622,0.5625,0.5627,0.5628,0,0,0,0,0,0,0,0.5461,0.5471,0.5571,0.5536,0.5535,0.5522,0.5527,0.5584,0.5584,0.5545,0.5542,0.5548,0.559,0.5608,0.5613,0.5702,0.5621,0.5626,0.5629,0.5631,0.5865,0.5869,0,0,0,0,0,0,0.5459,0.5468,0.5569,0.5572,0.5491,0.5527,0.5533,0.5559,0.5583,0.5584,0.5551,0.5546,0.5601,0.5607,0.5615,0.5723,0.5627,0.5631,0.5634,0.5862,0.5866,0.587,0,0,0,0,0,0,0.5456,0.5468,0.5567,0.5519,0.5531,0.5533,0.5563,0.5562,0.558,0.5587,0.5587,0.5569,0.5599,0.5608,0.5676,0.5724,0.5633,0.5638,0.5858,0.5863,0.5868,0.5939,0,0,0,0,0,0,0.5452,0.5468,0.5502,0.552,0.5533,0.5628,0.5566,0.5565,0.5588,0.5582,0.5604,0.5605,0.5597,0.5669,0.5681,0.5729,0.5642,0.5854,0.5861,0.5866,0.5932,0.5946,0.5957,0,0,0,0,0,0.5447,0.552,0.5504,0.5516,0.5576,0.5631,0.5638,0.5627,0.5592,0.5627,0.5632,0.5605,0.5716,0.5677,0.569,0.574,0.5851,0.5859,0.5866,0.5927,0.5943,0.5957,0,0,0,0,0,0,0.5507,0.5522,0.5504,0.5584,0.5607,0.5622,0.5666,0.5645,0.5678,0.5671,0.5655,0.5661,0.5734,0.5743,0.5699,0.5828,0.5778,0.5788,0.582,0.5835,0.5847,0.5844,0.5646,0,0,0,0,0,0.5529,0.5572,0.5583,0.5653,0.5665,0.5663,0.5687,0.5676,0.5699,0.5708,0.5718,0.5741,0.5782,0.5809,0.5846,0.5933,0.5938,0.5973,0.5986,0.5996,0.6006,0.6053,0.6069,0.5894,0.5894,0.5894,0,0,0.5576,0.559,0.5618,0.5665,0.5681,0.5727,0.5672,0.5722,0.5756,0.5716,0.5782,0.579,0.5814,0.5893,0.5928,0.5903,0.6055,0.6005,0.6013,0.6018,0.6062,0.6079,0.6094,0.5899,0.5898,0.5897,0,0,0.5686,0.5699,0.576,0.5777,0.5802,0.58,0.5815,0.5833,0.5837,0.5903,0.5874,0.5914,0.5983,0.6003,0.6021,0.6138,0.6115,0.615,0.6215,0.6262,0.6276,0.6288,0.6331,0.6346,0.6159,0.616,0.616,0,0.5741,0.5808,0.5793,0.5846,0.5868,0.5833,0.5895,0.5912,0.5948,0.5964,0.5936,0.6023,0.6037,0.612,0.6148,0.6164,0.6181,0.6149,0.6275,0.6287,0.6298,0.6339,0.6355,0.6164,0.6163,0.6163,0.6163,0,0.5876,0.5923,0.5968,0.6004,0.6031,0.6088,0.6082,0.6111,0.6098,0.61,0.6167,0.6183,0.6223,0.6242,0.6229,0.6323,0.6307,0.6277,0.6226,0.6319,0.6357,0.6373,0.617,0.6169,0.6167,0.6166,0,0,0.6025,0.6052,0.6069,0.6085,0.611,0.6146,0.6201,0.624,0.6266,0.6292,0.6339,0.6398,0.637,0.6392,0.6381,0.6422,0.6514,0.6386,0.6387,0.6411,0.662,0.6644,0.6662,0.6498,0.6501,0.6503,0.6618,0,0.6136,0.6232,0.622,0.6312,0.6356,0.6324,0.6372,0.6392,0.6395,0.6433,0.6436,0.6479,0.6438,0.6451,0.649,0.6495,0.6556,0.6486,0.6542,0.6544,0.6539,0.6681,0.6707,0.6815,0.6633,0.6635,0.6637,0,0.6278,0.631,0.6406,0.6425,0.6443,0.6486,0.6522,0.6558,0.658,0.658,0.6604,0.6586,0.6642,0.6589,0.6666,0.6618,0.664,0.6646,0.665,0.6656,0.6598,0.6693,0.6848,0.6865,0.666,0.6658,0.6657,0,0.638,0.6445,0.6512,0.6526,0.6549,0.6581,0.6592,0.6612,0.6636,0.6667,0.6683,0.672,0.674,0.6769,0.6762,0.6724,0.6841,0.6788,0.6843,0.6844,0.6871,0.6869,0.7034,0.6882,0.6882,0.6882,0.6882,0,0.6506,0.6566,0.6558,0.6599,0.6666,0.6652,0.6719,0.6725,0.6743,0.6786,0.6759,0.6799,0.6786,0.6826,0.682,0.6886,0.6895,0.6896,0.6894,0.69,0.69,0.6915,0.6908,0.6886,0.6885,0.6884,0.6884,0,0.663,0.6627,0.6697,0.6713,0.6719,0.6768,0.6781,0.682,0.682,0.6874,0.6886,0.6887,0.6932,0.6927,0.6978,0.6974,0.7055,0.7044,0.7048,0.7046,0.7102,0.7098,0.7283,0.7307,0.7139,0.7141,0.7142,0,0.6712,0.6758,0.6779,0.6805,0.6818,0.6861,0.6886,0.6874,0.6901,0.693,0.6966,0.7008,0.7042,0.7116,0.7121,0.716,0.715,0.7212,0.7155,0.7159,0.7152,0.715,0.7155,0.7224,0.7226,0.7227,0.7229,0,0.6857,0.6853,0.689,0.6927,0.6957,0.6986,0.7011,0.7034,0.7025,0.7057,0.7102,0.7129,0.718,0.7223,0.726,0.7271,0.7249,0.7246,0.7261,0.7268,0.7269,0.727,0.708,0.7242,0.7241,0.724,0.7239,0.7239,0.6963,0.7003,0.7024,0.7067,0.7084,0.7109,0.7147,0.7152,0.719,0.7231,0.7221,0.7274,0.7295,0.7342,0.7357,0.7398,0.7375,0.7397,0.7402,0.7408,0.7415,0.7261,0.7404,0.7404,0.7403,0.7403,0.7403,0,0.7108,0.712,0.7159,0.7196,0.723,0.7205,0.7232,0.7262,0.7308,0.733,0.7364,0.7417,0.7459,0.7467,0.7507,0.7538,0.7529,0.7549,0.7547,0.755,0.7433,0.7416,0.7556,0.7556,0.7556,0.7556,0.7556,0.7555,0.7188,0.7254,0.7253,0.7328,0.7339,0.739,0.7408,0.7431,0.7448,0.7509,0.7543,0.7548,0.7565,0.7606,0.7643,0.7645,0.7661,0.7686,0.7683,0.7574,0.7558,0.7544,0.7528,0.7689,0.7689,0.7797,0.7798,0.7799]}]]